Regional Weather Roundup
Issued by NWS

Home | Current Version | Previous Version | Text Only | Print | Product List | Glossary Off
Versions: 1 2 3 4 5 6 7 8 9 10 11 12 13 14 15 16 17 18 19 20 21 22 23 24 25 26 27 28 29 30 31 32 33 34 35 36 37 38 39 40 41 42 43 44 45 46 47 48 49 50

629
ASUS44 KLIX 010101
RWRLA
LOUISIANA WEATHER ROUNDUP
NATIONAL WEATHER SERVICE NEW ORLEANS LA
800 PM CDT FRI OCT 31 2014

NOTE: "FAIR" INDICATES FEW OR NO CLOUDS BELOW 12,000 FEET WITH NO
      SIGNIFICANT WEATHER AND/OR OBSTRUCTIONS TO VISIBILITY.
      SKY/WX - SKY CONDITION AND SIGNIFICANT WEATHER.
      TMP - AIR TEMPERATURE.    DP   - DEWPOINT TEMPERATURE.
      RH  - RELATIVE HUMIDITY.  PRES - PRESSURE.
      HX  - HEAT INDEX.         WCI  - WIND CHILL INDEX.

*  THESE STATIONS ARE NOT NWS OR FAA STATIONS AND ARE NOT UNDER
   NWS QUALITY CONTROL.

LAZ040-048-061>063-065-066-069-010200-
SOUTHEAST LOUISIANA

CITY           SKY/WX    TMP DP  RH WIND       PRES   REMARKS
N.O. AUDUBON     N/A     67  50  54 MISG        N/A
N.O. INTL ARPT PTCLDY    67  46  47 N20G29    30.11R
N.O. LAKEFRONT CLEAR     69  51  52 NW31G37   30.11R
N.O. DOWNTOWN* FAIR      68  45  42 N13G22    30.11R
SLIDELL        CLEAR     64  45  49 N8        30.11R
BATON ROUGE    PTCLDY    62  45  53 N7        30.16R
BOOTHVILLE     CLEAR     69  52  54 N17G25    30.06R
BELLE CHASSE   PTCLDY    68  45  43 N12G26    30.09R
BOGALUSA*        N/A     62  45  52 N13       30.14R
NEW ROADS*     FAIR      61  47  62 N8        30.18R
GONZALES*      FAIR      63  48  59 N12G18    30.15R
HAMMOND*       NOT AVBL
HOUMA*         CLEAR     63  48  58 NW7       30.11R
PORT FOURCHON* NOT AVBL

$$

LAZ041-044-053-054-010200-
SOUTHWEST LOUISIANA

CITY           SKY/WX    TMP DP  RH WIND       PRES   REMARKS
LAKE CHARLES   CLEAR     65  47  52 N12       30.19R
LAFAYETTE      CLEAR     65  47  52 N13       30.17R
PATTERSON      CLEAR     63  48  59 N13       30.16R
SALT POINT       N/A     65  50  58 N6        30.13R
NEW IBERIA     CLEAR     61  49  64 N9        30.16R
CHENAULT AIRPK NOT AVBL

$$

LAZ027-028-010200-
CENTRAL LOUISIANA

CITY           SKY/WX    TMP DP  RH WIND       PRES   REMARKS
FORT POLK      NOT AVBL
ALEXANDRIA INT PTCLDY    59  47  64 N7        30.20R
ALEXANDRIA     PTCLDY    58  48  69 CALM      30.21R

$$

LAZ001-002-010200-
NORTHWEST LOUISIANA

CITY           SKY/WX    TMP DP  RH WIND       PRES   REMARKS
SHREVEPORT     CLEAR     60  43  53 N9        30.26R
BARKSDALE AFB  NOT AVBL
DTN SHREVEPORT CLEAR     58  42  55 N6        30.26R

$$

LAZ014-016-010200-
NORTHEAST LOUISIANA

CITY           SKY/WX    TMP DP  RH WIND       PRES   REMARKS
MONROE         PTCLDY    56  45  66 N7        30.25R
TALLULAH       PTCLDY    55  42  61 N10       30.22R

$$




USA.gov is the U.S. government's official web portal to all federal, state and local government web resources and services.